Starlink 35783

operational
NORAD ID: 66286 Int'l Des: 2025-247 Owner: SPXS Country: US Constellation: starlink
NOTLE

Über Starlink 35783

Beschreibung wird geladen...

Live-Position

3D-Globus wird geladen...

Nächste Überflüge

Höhenverlauf

Altitude vs Time

uPlot chart will show altitude changes over time

Zweizeiliger Elementsatz

1 66286U 25247X 25354.58608074 .00023902 00000-0 60526-3 0 9993
2 66286 53.1571 200.2028 0001979 109.3655 250.7564 15.39639094 8906
Epoch: 20. Dez. 2025 • Age: 10 hours

Aktueller Status

Höhe 447.8 km
Geschwindigkeit 7.65 km/s
Subsatellitenpunkt 31.00°N, 98.46°W
Startdatum 31. Okt. 2025
Alter 0.1 years
Typ internet

Technische Details

Klassifizierung Payload
Masse 575.00 kg
Trockenmasse 530.00 kg
Gesamtmasse 575.00 kg
Länge 0.30 m
Durchmesser 4.10 m
Spannweite 29.00 m
Form Box + pan
Hersteller SPXS
Bus-Typ Starlink V2MO
Phasenstatus In Orbit
Besitzer/Staat SPXS/US

Große Konstellationen

Loading constellations...